QPF
0.07 0.08 0.09 0.08 0.08 0.07 0.07 0.07 0.07 0.07 0.05 0.03 0.03 0.04 0.02 0.01 0.01 0.01 0.01 0.03 0.05 0.06 0.07 0.06 0.06 0.05 0.06 0.06 0.07 0.07 0.07 0.08 0.07 0.08 0.06 0.05 0.04 0.03 0.03 0.04 0.04 0.05 0.05
0.05 0.05 0.08 0.09 0.09 0.07 0.07 0.09 0.10 0.07 0.04 0.03 0.02 0.02 0.02 0.01 0.01 0.01 0.02 0.05 0.06 0.06 0.07 0.08 0.07 0.06 0.08 0.08 0.06 0.05 0.05 0.06 0.06 0.07 0.07 0.05 0.04 0.03 0.03 0.04 0.04 0.05 0.05
0.05 0.04 0.06 0.07 0.09 0.08 0.08 0.09 0.09 0.08 0.07 0.05 0.03 0.03 0.02 0.02 0.01 0.01 0.02 0.05 0.07 0.07 0.06 0.07 0.06 0.05 0.06 0.06 0.05 0.05 0.05 0.06 0.06 0.07 0.07 0.06 0.04 0.03 0.04 0.03 0.03 0.03 0.04
0.05 0.06 0.06 0.07 0.07 0.08 0.08 0.09 0.10 0.09 0.08 0.07 0.04 0.02 0.02 0.02 0.03 0.03 0.02 0.03 0.05 0.06 0.06 0.07 0.06 0.04 0.04 0.04 0.04 0.03 0.04 0.04 0.05 0.05 0.05 0.05 0.04 0.04 0.04 0.04 0.03 0.02 0.02
0.07 0.07 0.08 0.09 0.09 0.10 0.11 0.11 0.11 0.10 0.08 0.07 0.06 0.04 0.02 0.02 0.02 0.03 0.04 0.06 0.07 0.06 0.05 0.06 0.05 0.04 0.03 0.02 0.02 0.02 0.02 0.02 0.03 0.04 0.04 0.05 0.05 0.04 0.04 0.05 0.04 0.03 0.02
0.05 0.06 0.08 0.11 0.10 0.11 0.11 0.11 0.11 0.12 0.10 0.07 0.04 0.03 0.02 0.02 0.02 0.03 0.04 0.05 0.07 0.04 0.02 0.03 0.05 0.05 0.03 0.03 0.02 0.01 0.01 0.01 0.02 0.02 0.02 0.03 0.03 0.04 0.05 0.04 0.05 0.04 0.02
0.06 0.06 0.07 0.10 0.11 0.11 0.11 0.10 0.07 0.06 0.06 0.05 0.04 0.03 0.02 0.03 0.03 0.03 0.04 0.04 0.03 0.03 0.02 0.02 0.04 0.04 0.03 0.03 0.02 0.01 0.01 0.01 0.01 0.01 0.01 0.01 0.02 0.03 0.04 0.03 0.04 0.05 0.04
0.06 0.06 0.06 0.07 0.06 0.06 0.05 0.05 0.03 0.03 0.03 0.03 0.02 0.03 0.04 0.04 0.03 0.02 0.02 0.01 0.01 0.02 0.03 0.03 0.03 0.03 0.02 0.02 0.01 0.01 0.01 0.01 0.01 0.01 0.01 0.01 0.02 0.02 0.03 0.03 0.03 0.03 0.04
0.08 0.08 0.07 0.05 0.03 0.03 0.03 0.03 0.03 0.03 0.03 0.04 0.04 0.04 0.03 0.03 0.02 0.01 0.01 0.01 0.01 0.01 0.02 0.02 0.02 0.02 0.02 0.02 0.01 0.01 0.01 0.00 0.01 0.01 0.02 0.01 0.02 0.03 0.03 0.03 0.03 0.03 0.04
0.08 0.06 0.05 0.04 0.04 0.03 0.02 0.02 0.03 0.04 0.03 0.03 0.04 0.03 0.02 0.02 0.01 0.01 0.00 0.00 0.01 0.01 0.01 0.01 0.01 0.01 0.01 0.01 0.01 0.01 0.01 0.01 0.01 0.03 0.03 0.02 0.02 0.03 0.03 0.03 0.04 0.04 0.04
0.06 0.05 0.05 0.04 0.04 0.04 0.03 0.03 0.03 0.03 0.03 0.03 0.03 0.03 0.02 0.02 0.01 0.01 0.01 0.01 0.01 0.02 0.02 0.01 0.01 0.01 0.01 0.00 0.00 0.01 0.00 0.00 0.02 0.04 0.04 0.03 0.03 0.03 0.02 0.02 0.02 0.04 0.05
0.05 0.05 0.04 0.03 0.03 0.03 0.02 0.03 0.04 0.03 0.02 0.02 0.02 0.02 0.02 0.02 0.02 0.02 0.02 0.01 0.02 0.02 0.02 0.01 0.01 0.01 0.01 0.01 0.01 0.01 0.01 0.01 0.02 0.04 0.04 0.04 0.04 0.03 0.02 0.02 0.02 0.02 0.02
0.04 0.04 0.04 0.03 0.02 0.02 0.02 0.03 0.02 0.02 0.01 0.01 0.01 0.01 0.01 0.02 0.02 0.02 0.02 0.01 0.02 0.02 0.01 0.01 0.01 0.01 0.01 0.01 0.01 0.01 0.01 0.02 0.03 0.03 0.03 0.04 0.04 0.04 0.02 0.02 0.02 0.02 0.02
0.03 0.03 0.04 0.03 0.02 0.01 0.02 0.01 0.01 0.01 0.01 0.01 0.01 0.01 0.01 0.02 0.02 0.02 0.02 0.03 0.03 0.02 0.02 0.02 0.02 0.01 0.01 0.01 0.01 0.01 0.02 0.03 0.03 0.02 0.03 0.03 0.02 0.02 0.02 0.02 0.01 0.01 0.02
0.02 0.02 0.03 0.03 0.01 0.01 0.01 0.01 0.01 0.01 0.01 0.01 0.01 0.01 0.01 0.01 0.01 0.01 0.02 0.05 0.07 0.06 0.05 0.04 0.03 0.01 0.01 0.01 0.01 0.02 0.03 0.03 0.03 0.02 0.02 0.03 0.02 0.01 0.01 0.01 0.02 0.02 0.02
0.03 0.02 0.01 0.01 0.01 0.01 0.01 0.01 0.01 0.01 0.01 0.02 0.02 0.02 0.01 0.01 0.01 0.01 0.01 0.01 0.03 0.04 0.05 0.05 0.03 0.02 0.01 0.01 0.02 0.02 0.03 0.03 0.02 0.02 0.02 0.02 0.02 0.02 0.02 0.02 0.02 0.02 0.03
0.02 0.02 0.02 0.02 0.02 0.02 0.02 0.01 0.01 0.01 0.02 0.02 0.02 0.02 0.01 0.01 0.01 0.01 0.01 0.01 0.01 0.00 0.01 0.01 0.01 0.01 0.01 0.01 0.02 0.02 0.02 0.02 0.01 0.01 0.01 0.01 0.02 0.03 0.02 0.02 0.02 0.02 0.03
0.03 0.04 0.04 0.05 0.06 0.06 0.04 0.03 0.03 0.02 0.02 0.01 0.01 0.01 0.00 0.00 0.00 0.01 0.01 0.01 0.01 0.01 0.00 0.00 0.00 0.00 0.01 0.01 0.03 0.02 0.02 0.02 0.01 0.01 0.01 0.01 0.01 0.02 0.02 0.01 0.01 0.01 0.01
0.04 0.06 0.06 0.09 0.11 0.09 0.07 0.05 0.04 0.04 0.03 0.02 0.01 0.00 0.00 0.00 0.00 0.00 0.00 0.00 0.01 0.01 0.00 0.00 0.01 0.01 0.02 0.03 0.03 0.02 0.03 0.02 0.01 0.02 0.01 0.01 0.02 0.02 0.03 0.01 0.01 0.01 0.00
0.07 0.06 0.05 0.08 0.10 0.07 0.05 0.04 0.04 0.04 0.04 0.03 0.02 0.01 0.00 0.00 0.00 0.00 0.00 0.00 0.01 0.01 0.01 0.00 0.01 0.01 0.01 0.01 0.02 0.03 0.03 0.01 0.01 0.01 0.01 0.01 0.03 0.03 0.03 0.01 0.01 0.01 0.01
0.04 0.04 0.03 0.04 0.05 0.04 0.03 0.02 0.03 0.04 0.03 0.02 0.01 0.01 0.01 0.00 0.00 0.00 0.00 0.00 0.00 0.01 0.01 0.01 0.01 0.01 0.01 0.01 0.02 0.02 0.02 0.01 0.01 0.01 0.01 0.01 0.03 0.03 0.02 0.02 0.01 0.01 0.01
0.02 0.03 0.03 0.04 0.04 0.04 0.03 0.03 0.04 0.04 0.04 0.03 0.01 0.01 0.01 0.01 0.01 0.01 0.01 0.00 0.00 0.00 0.00 0.01 0.01 0.01 0.01 0.00 0.01 0.01 0.02 0.01 0.01 0.01 0.01 0.01 0.02 0.02 0.01 0.01 0.01 0.01 0.01
0.01 0.02 0.03 0.04 0.04 0.04 0.04 0.04 0.04 0.04 0.05 0.05 0.03 0.01 0.01 0.00 0.00 0.00 0.00 0.00 0.00 0.00 0.00 0.00 0.00 0.00 0.00 0.00 0.00 0.01 0.01 0.02 0.01 0.01 0.01 0.02 0.02 0.02 0.02 0.01 0.01 0.01 0.01
0.01 0.01 0.01 0.02 0.03 0.04 0.04 0.04 0.05 0.05 0.05 0.05 0.04 0.02 0.01 0.01 0.01 0.00 0.00 0.00 0.00 0.00 0.00 0.01 0.01 0.00 0.00 0.00 0.00 0.01 0.02 0.03 0.02 0.01 0.01 0.01 0.01 0.01 0.02 0.01 0.02 0.02 0.02
0.01 0.01 0.01 0.01 0.02 0.03 0.03 0.03 0.03 0.03 0.05 0.05 0.05 0.03 0.02 0.02 0.01 0.00 0.00 0.00 0.00 0.00 0.00 0.00 0.01 0.02 0.01 0.01 0.00 0.00 0.01 0.02 0.02 0.01 0.00 0.00 0.00 0.01 0.01 0.01 0.01 0.02 0.01
0.02 0.01 0.01 0.01 0.01 0.02 0.02 0.02 0.02 0.01 0.02 0.03 0.04 0.03 0.03 0.02 0.01 0.00 0.00 0.00 0.00 0.00 0.00 0.00 0.01 0.01 0.01 0.01 0.01 0.00 0.00 0.01 0.01 0.01 0.00 0.00 0.00 0.00 0.01 0.01 0.01 0.01 0.00
MSLP
1018.99 1019.52 1019.94 1020.21 1020.30 1020.24 1020.06 1019.81 1019.57 1019.37 1019.25 1019.24 1019.31 1019.45 1019.61 1019.75 1019.86 1019.91 1019.91 1019.87 1019.81 1019.76 1019.71 1019.68 1019.64 1019.58 1019.48 1019.33 1019.10 1018.82 1018.49 1018.16 1017.84 1017.57 1017.36 1017.23 1017.17 1017.18 1017.25 1017.34 1017.47 1017.62 1017.79
1019.16 1019.74 1020.19 1020.48 1020.58 1020.52 1020.33 1020.09 1019.85 1019.69 1019.62 1019.66 1019.78 1019.95 1020.11 1020.24 1020.29 1020.27 1020.19 1020.08 1019.96 1019.86 1019.80 1019.77 1019.75 1019.72 1019.65 1019.51 1019.29 1019.00 1018.65 1018.28 1017.92 1017.62 1017.39 1017.24 1017.18 1017.21 1017.29 1017.42 1017.58 1017.77 1017.99
1019.13 1019.76 1020.27 1020.60 1020.73 1020.70 1020.53 1020.32 1020.12 1020.00 1019.98 1020.08 1020.24 1020.44 1020.61 1020.71 1020.72 1020.64 1020.49 1020.30 1020.12 1019.98 1019.89 1019.86 1019.87 1019.87 1019.82 1019.71 1019.51 1019.23 1018.88 1018.51 1018.14 1017.81 1017.57 1017.41 1017.34 1017.36 1017.44 1017.59 1017.77 1017.99 1018.23
1018.99 1019.69 1020.26 1020.66 1020.85 1020.86 1020.74 1020.57 1020.41 1020.33 1020.36 1020.49 1020.69 1020.91 1021.08 1021.17 1021.14 1021.01 1020.79 1020.54 1020.31 1020.13 1020.02 1019.98 1019.99 1020.01 1020.00 1019.93 1019.76 1019.51 1019.19 1018.82 1018.46 1018.13 1017.87 1017.69 1017.61 1017.61 1017.68 1017.82 1018.00 1018.22 1018.47
1018.83 1019.61 1020.27 1020.75 1021.01 1021.09 1021.02 1020.89 1020.76 1020.72 1020.77 1020.92 1021.13 1021.35 1021.52 1021.59 1021.53 1021.36 1021.11 1020.81 1020.54 1020.32 1020.18 1020.13 1020.14 1020.17 1020.19 1020.14 1020.01 1019.80 1019.51 1019.17 1018.82 1018.50 1018.23 1018.04 1017.93 1017.90 1017.94 1018.05 1018.21 1018.41 1018.65
1018.73 1019.59 1020.34 1020.91 1021.26 1021.40 1021.38 1021.28 1021.18 1021.14 1021.20 1021.34 1021.54 1021.75 1021.90 1021.96 1021.89 1021.70 1021.43 1021.12 1020.81 1020.57 1020.40 1020.33 1020.32 1020.34 1020.36 1020.33 1020.23 1020.05 1019.79 1019.48 1019.16 1018.84 1018.57 1018.36 1018.21 1018.14 1018.14 1018.21 1018.33 1018.51 1018.73
1018.72 1019.66 1020.50 1021.15 1021.57 1021.77 1021.80 1021.72 1021.63 1021.58 1021.62 1021.74 1021.91 1022.10 1022.24 1022.29 1022.22 1022.03 1021.76 1021.45 1021.13 1020.87 1020.68 1020.57 1020.53 1020.53 1020.52 1020.49 1020.39 1020.22 1019.99 1019.70 1019.39 1019.09 1018.80 1018.56 1018.38 1018.26 1018.21 1018.23 1018.32 1018.46 1018.67
1018.80 1019.81 1020.72 1021.43 1021.91 1022.16 1022.22 1022.16 1022.06 1021.99 1022.00 1022.08 1022.23 1022.39 1022.51 1022.56 1022.50 1022.34 1022.09 1021.80 1021.49 1021.21 1021.00 1020.85 1020.76 1020.71 1020.67 1020.60 1020.48 1020.31 1020.08 1019.80 1019.50 1019.18 1018.88 1018.61 1018.39 1018.22 1018.12 1018.09 1018.14 1018.26 1018.46
1018.96 1020.00 1020.94 1021.70 1022.21 1022.49 1022.57 1022.52 1022.42 1022.33 1022.31 1022.36 1022.48 1022.61 1022.73 1022.78 1022.75 1022.62 1022.41 1022.14 1021.85 1021.58 1021.34 1021.15 1021.01 1020.90 1020.79 1020.67 1020.52 1020.32 1020.07 1019.78 1019.47 1019.14 1018.82 1018.52 1018.25 1018.03 1017.88 1017.81 1017.82 1017.93 1018.13
1019.16 1020.20 1021.13 1021.89 1022.41 1022.69 1022.79 1022.76 1022.66 1022.58 1022.54 1022.57 1022.66 1022.78 1022.89 1022.96 1022.95 1022.86 1022.69 1022.46 1022.20 1021.93 1021.67 1021.45 1021.25 1021.07 1020.90 1020.71 1020.51 1020.27 1020.00 1019.69 1019.37 1019.02 1018.67 1018.33 1018.02 1017.76 1017.56 1017.44 1017.43 1017.53 1017.73
1019.38 1020.36 1021.25 1021.96 1022.46 1022.75 1022.86 1022.85 1022.77 1022.70 1022.67 1022.69 1022.77 1022.88 1022.99 1023.07 1023.08 1023.03 1022.90 1022.71 1022.47 1022.22 1021.95 1021.70 1021.45 1021.22 1020.99 1020.75 1020.49 1020.22 1019.92 1019.59 1019.25 1018.88 1018.51 1018.14 1017.79 1017.49 1017.24 1017.09 1017.05 1017.13 1017.34
1019.59 1020.48 1021.28 1021.92 1022.38 1022.65 1022.78 1022.80 1022.76 1022.73 1022.72 1022.75 1022.83 1022.94 1023.04 1023.12 1023.14 1023.11 1023.01 1022.85 1022.64 1022.40 1022.14 1021.87 1021.60 1021.33 1021.05 1020.77 1020.48 1020.18 1019.87 1019.53 1019.17 1018.80 1018.41 1018.02 1017.64 1017.29 1017.01 1016.82 1016.75 1016.81 1017.01
1019.80 1020.56 1021.23 1021.78 1022.18 1022.43 1022.57 1022.63 1022.65 1022.66 1022.69 1022.75 1022.84 1022.93 1023.02 1023.09 1023.11 1023.08 1022.99 1022.85 1022.67 1022.45 1022.21 1021.94 1021.66 1021.38 1021.08 1020.79 1020.48 1020.17 1019.85 1019.52 1019.17 1018.80 1018.40 1018.00 1017.59 1017.22 1016.90 1016.67 1016.55 1016.58 1016.75
1020.00 1020.61 1021.14 1021.58 1021.90 1022.14 1022.29 1022.39 1022.46 1022.53 1022.61 1022.69 1022.78 1022.87 1022.93 1022.97 1022.98 1022.94 1022.85 1022.73 1022.56 1022.37 1022.14 1021.89 1021.63 1021.35 1021.06 1020.77 1020.47 1020.17 1019.86 1019.54 1019.20 1018.84 1018.45 1018.04 1017.63 1017.23 1016.87 1016.60 1016.44 1016.42 1016.55
1020.18 1020.63 1021.02 1021.34 1021.60 1021.80 1021.97 1022.11 1022.23 1022.35 1022.47 1022.57 1022.66 1022.73 1022.77 1022.77 1022.75 1022.68 1022.59 1022.47 1022.33 1022.15 1021.96 1021.74 1021.50 1021.24 1020.97 1020.69 1020.41 1020.13 1019.84 1019.54 1019.22 1018.87 1018.49 1018.09 1017.67 1017.25 1016.88 1016.57 1016.37 1016.30 1016.38
1020.33 1020.65 1020.90 1021.12 1021.30 1021.47 1021.63 1021.80 1021.97 1022.13 1022.27 1022.39 1022.48 1022.52 1022.53 1022.49 1022.43 1022.35 1022.25 1022.13 1022.00 1021.85 1021.69 1021.49 1021.28 1021.05 1020.80 1020.54 1020.28 1020.01 1019.74 1019.45 1019.15 1018.82 1018.45 1018.05 1017.63 1017.21 1016.82 1016.49 1016.25 1016.14 1016.17
1020.46 1020.65 1020.80 1020.91 1021.03 1021.17 1021.32 1021.50 1021.69 1021.87 1022.03 1022.15 1022.23 1022.25 1022.22 1022.16 1022.07 1021.97 1021.86 1021.75 1021.64 1021.52 1021.38 1021.22 1021.03 1020.81 1020.58 1020.33 1020.07 1019.81 1019.53 1019.25 1018.95 1018.62 1018.27 1017.87 1017.46 1017.04 1016.64 1016.30 1016.05 1015.91 1015.91
1020.57 1020.67 1020.72 1020.76 1020.82 1020.92 1021.05 1021.23 1021.42 1021.61 1021.76 1021.88 1021.93 1021.93 1021.89 1021.81 1021.70 1021.60 1021.49 1021.40 1021.31 1021.21 1021.09 1020.95 1020.78 1020.57 1020.34 1020.08 1019.80 1019.52 1019.23 1018.93 1018.62 1018.29 1017.93 1017.54 1017.13 1016.72 1016.33 1016.00 1015.75 1015.61 1015.60
1020.66 1020.70 1020.69 1020.68 1020.69 1020.75 1020.85 1021.01 1021.18 1021.35 1021.49 1021.59 1021.63 1021.61 1021.56 1021.47 1021.37 1021.28 1021.19 1021.12 1021.05 1020.97 1020.87 1020.74 1020.58 1020.36 1020.11 1019.83 1019.53 1019.22 1018.89 1018.56 1018.22 1017.87 1017.49 1017.10 1016.70 1016.31 1015.94 1015.63 1015.40 1015.28 1015.28
1020.77 1020.77 1020.73 1020.68 1020.65 1020.67 1020.74 1020.86 1021.00 1021.13 1021.25 1021.33 1021.35 1021.33 1021.28 1021.20 1021.12 1021.04 1020.98 1020.93 1020.88 1020.82 1020.74 1020.62 1020.44 1020.22 1019.95 1019.64 1019.31 1018.95 1018.59 1018.22 1017.85 1017.47 1017.08 1016.68 1016.28 1015.90 1015.56 1015.27 1015.08 1014.99 1015.03
1020.90 1020.90 1020.84 1020.77 1020.71 1020.70 1020.73 1020.80 1020.90 1021.00 1021.09 1021.14 1021.15 1021.13 1021.08 1021.01 1020.95 1020.90 1020.86 1020.83 1020.80 1020.76 1020.68 1020.56 1020.38 1020.14 1019.86 1019.53 1019.17 1018.78 1018.39 1017.99 1017.59 1017.18 1016.77 1016.37 1015.97 1015.61 1015.29 1015.04 1014.88 1014.83 1014.90
1021.08 1021.09 1021.03 1020.95 1020.88 1020.83 1020.83 1020.85 1020.91 1020.97 1021.01 1021.04 1021.04 1021.02 1020.97 1020.92 1020.87 1020.83 1020.81 1020.79 1020.76 1020.72 1020.64 1020.52 1020.34 1020.10 1019.81 1019.48 1019.12 1018.73 1018.33 1017.92 1017.50 1017.08 1016.67 1016.26 1015.87 1015.51 1015.20 1014.98 1014.84 1014.82 1014.92
1021.30 1021.32 1021.28 1021.20 1021.11 1021.05 1021.01 1021.00 1021.01 1021.03 1021.04 1021.05 1021.03 1020.99 1020.95 1020.90 1020.85 1020.81 1020.77 1020.74 1020.71 1020.65 1020.57 1020.44 1020.26 1020.04 1019.77 1019.46 1019.12 1018.76 1018.38 1017.98 1017.58 1017.17 1016.76 1016.36 1015.97 1015.62 1015.33 1015.11 1014.99 1014.98 1015.09
1021.52 1021.56 1021.53 1021.46 1021.37 1021.30 1021.23 1021.20 1021.17 1021.16 1021.15 1021.13 1021.09 1021.04 1020.98 1020.91 1020.84 1020.78 1020.71 1020.65 1020.57 1020.49 1020.38 1020.25 1020.08 1019.88 1019.64 1019.38 1019.10 1018.79 1018.47 1018.13 1017.77 1017.39 1017.01 1016.62 1016.25 1015.90 1015.61 1015.39 1015.27 1015.25 1015.34
1021.70 1021.76 1021.75 1021.69 1021.61 1021.53 1021.45 1021.40 1021.35 1021.32 1021.28 1021.24 1021.18 1021.11 1021.03 1020.93 1020.82 1020.70 1020.58 1020.45 1020.32 1020.19 1020.05 1019.90 1019.73 1019.56 1019.38 1019.18 1018.97 1018.75 1018.51 1018.24 1017.95 1017.63 1017.29 1016.93 1016.58 1016.25 1015.96 1015.73 1015.59 1015.55 1015.60
1021.81 1021.88 1021.88 1021.84 1021.76 1021.68 1021.61 1021.54 1021.49 1021.44 1021.39 1021.34 1021.26 1021.17 1021.05 1020.90 1020.74 1020.55 1020.35 1020.15 1019.94 1019.74 1019.55 1019.37 1019.21 1019.06 1018.93 1018.80 1018.67 1018.54 1018.39 1018.21 1018.00 1017.75 1017.47 1017.16 1016.84 1016.53 1016.25 1016.02 1015.86 1015.79 1015.80
Thickness
5706 5704 5702 5700 5698 5695 5692 5689 5686 5683 5681 5677 5674 5670 5667 5665 5663 5661 5660 5659 5658 5657 5655 5654 5654 5653 5653 5653 5653 5653 5653 5653 5654 5654 5653 5654 5655 5656 5656 5657 5658 5660 5661
5700 5697 5694 5692 5690 5688 5685 5681 5678 5675 5672 5669 5666 5663 5660 5657 5655 5652 5651 5650 5649 5647 5646 5645 5644 5644 5644 5644 5644 5645 5644 5644 5646 5645 5645 5644 5645 5647 5648 5649 5650 5651 5652
5697 5693 5689 5685 5682 5679 5677 5674 5670 5667 5665 5662 5659 5655 5651 5648 5645 5643 5641 5640 5639 5638 5637 5636 5635 5635 5635 5635 5635 5636 5636 5636 5637 5637 5637 5637 5637 5637 5638 5639 5640 5642 5643
5693 5689 5684 5679 5675 5672 5669 5665 5662 5659 5657 5654 5651 5647 5642 5637 5635 5633 5632 5631 5630 5629 5628 5627 5627 5626 5626 5627 5627 5628 5628 5628 5628 5629 5630 5631 5632 5631 5630 5631 5632 5633 5634
5689 5684 5679 5674 5670 5665 5661 5657 5654 5652 5649 5646 5642 5638 5633 5629 5626 5625 5623 5622 5621 5620 5620 5619 5618 5617 5617 5618 5619 5619 5620 5621 5621 5621 5622 5623 5624 5625 5625 5624 5624 5625 5625
5685 5678 5673 5668 5663 5658 5654 5650 5647 5644 5641 5637 5633 5630 5625 5621 5618 5615 5613 5612 5611 5611 5610 5610 5609 5608 5609 5609 5610 5611 5612 5613 5613 5614 5615 5616 5617 5618 5619 5618 5618 5618 5617
5680 5673 5666 5661 5656 5651 5647 5643 5640 5636 5633 5630 5626 5622 5617 5613 5610 5607 5604 5603 5602 5601 5601 5601 5601 5600 5600 5601 5602 5603 5604 5605 5606 5607 5608 5609 5610 5611 5612 5612 5612 5611 5611
5675 5669 5662 5656 5650 5645 5640 5636 5632 5628 5625 5622 5617 5614 5610 5605 5602 5600 5597 5595 5594 5593 5593 5592 5593 5592 5593 5593 5594 5594 5595 5597 5598 5600 5601 5603 5604 5605 5606 5607 5606 5605 5605
5670 5663 5656 5651 5644 5638 5633 5629 5625 5621 5617 5613 5609 5606 5602 5599 5595 5593 5591 5588 5587 5586 5585 5585 5585 5585 5585 5585 5586 5586 5587 5589 5591 5593 5595 5597 5598 5599 5600 5601 5601 5601 5601
5662 5656 5650 5644 5638 5632 5627 5623 5619 5614 5610 5606 5602 5599 5595 5592 5589 5586 5584 5582 5580 5579 5579 5578 5578 5577 5577 5577 5578 5579 5581 5582 5584 5586 5588 5590 5591 5592 5593 5594 5595 5596 5596
5656 5650 5643 5637 5631 5625 5621 5616 5611 5607 5603 5599 5595 5592 5588 5585 5582 5579 5577 5575 5574 5573 5572 5571 5571 5570 5569 5570 5570 5572 5574 5575 5577 5579 5581 5583 5584 5586 5587 5588 5588 5589 5590
5650 5643 5637 5631 5625 5620 5615 5610 5605 5601 5597 5593 5589 5585 5582 5578 5575 5573 5570 5569 5567 5566 5565 5564 5563 5563 5562 5562 5563 5564 5566 5567 5570 5572 5575 5576 5578 5579 5580 5581 5582 5582 5583
5643 5636 5630 5625 5620 5615 5610 5605 5600 5595 5591 5587 5583 5579 5576 5572 5569 5566 5565 5563 5562 5560 5559 5558 5557 5556 5556 5556 5557 5558 5559 5561 5563 5566 5568 5570 5572 5573 5574 5575 5575 5576 5577
5638 5631 5625 5620 5615 5609 5604 5600 5594 5590 5586 5583 5578 5574 5570 5567 5565 5562 5560 5558 5556 5554 5553 5552 5551 5550 5550 5551 5552 5553 5554 5555 5558 5560 5563 5565 5567 5568 5569 5570 5570 5570 5571
5633 5627 5621 5615 5610 5604 5600 5595 5590 5586 5582 5578 5574 5570 5567 5563 5560 5558 5555 5553 5551 5550 5548 5547 5546 5546 5546 5546 5547 5548 5549 5551 5553 5555 5557 5559 5562 5563 5564 5565 5565 5565 5566
5629 5623 5617 5612 5607 5602 5597 5591 5586 5582 5578 5574 5570 5567 5564 5560 5557 5554 5551 5549 5547 5545 5544 5543 5542 5542 5542 5543 5543 5544 5545 5547 5548 5549 5552 5554 5556 5558 5559 5560 5561 5562 5562
5625 5620 5614 5610 5605 5600 5594 5588 5584 5579 5575 5571 5568 5564 5561 5557 5554 5551 5548 5545 5543 5541 5540 5539 5539 5539 5539 5540 5541 5542 5542 5543 5544 5545 5547 5550 5552 5553 5555 5556 5557 5558 5558
5621 5617 5612 5607 5602 5597 5591 5586 5581 5577 5572 5569 5566 5563 5559 5555 5552 5548 5546 5543 5541 5539 5537 5537 5537 5537 5538 5538 5539 5540 5540 5540 5541 5542 5543 5545 5547 5549 5550 5551 5553 5554 5555
5618 5614 5609 5605 5599 5594 5589 5584 5579 5574 5570 5567 5564 5561 5558 5554 5550 5547 5544 5542 5539 5538 5536 5535 5535 5535 5536 5537 5537 5538 5538 5538 5539 5540 5541 5542 5544 5545 5546 5548 5549 5551 5552
5614 5610 5605 5601 5596 5591 5587 5581 5577 5572 5569 5566 5563 5560 5556 5552 5549 5546 5544 5541 5539 5537 5536 5535 5534 5534 5534 5535 5536 5536 5536 5536 5537 5538 5540 5541 5542 5543 5544 5545 5547 5548 5550
5611 5607 5602 5598 5593 5589 5585 5580 5575 5571 5569 5565 5562 5559 5555 5552 5549 5546 5543 5541 5539 5537 5536 5535 5535 5534 5534 5534 5535 5535 5534 5535 5536 5537 5538 5540 5541 5542 5543 5544 5545 5547 5548
5607 5603 5598 5594 5590 5587 5583 5578 5574 5571 5568 5564 5561 5557 5554 5552 5550 5546 5543 5541 5539 5537 5536 5535 5535 5535 5535 5535 5535 5535 5535 5535 5535 5536 5538 5539 5540 5542 5543 5544 5546 5547 5547
5603 5599 5595 5591 5587 5584 5581 5577 5573 5570 5567 5563 5559 5556 5554 5551 5549 5546 5544 5541 5539 5537 5536 5535 5535 5535 5536 5536 5536 5536 5536 5536 5536 5537 5538 5539 5540 5542 5544 5545 5546 5547 5547
5600 5596 5592 5588 5584 5581 5579 5576 5573 5569 5566 5562 5559 5556 5553 5551 5549 5547 5545 5542 5541 5539 5538 5537 5537 5536 5536 5537 5538 5537 5537 5537 5538 5538 5539 5540 5542 5543 5544 5545 5547 5548 5548
5597 5593 5590 5586 5583 5580 5577 5575 5572 5569 5565 5561 5558 5556 5554 5551 5549 5548 5546 5545 5544 5542 5541 5540 5539 5538 5539 5540 5540 5539 5539 5539 5539 5539 5540 5542 5543 5545 5547 5547 5548 5549 5549
5595 5591 5588 5584 5582 5579 5576 5574 5571 5568 5565 5561 5558 5556 5554 5552 5550 5549 5549 5549 5548 5547 5546 5544 5543 5542 5543 5543 5543 5542 5542 5541 5540 5540 5541 5543 5545 5546 5547 5548 5550 5551 5552